• Join FlightAware (Why Join?)
  • Login
  • US Flag 
11:25AM EDT


 

Airport Tracker/Info


-or-


 

Live Flight TrackerFlight Track Log ✈ UAL3849 ✈ 02-May-2013 ✈ KCLE - KBNA

Flight Track Log - Related Links

Times and Time Zones

All times are in EDT time to prevent confusion due to time zone crossing. See the UAL3849 flight status page for this flight to view local times or setup timezone preferences in your user account.

Time Position Orientation Groundspeed Altitude Reporting Facility
EDT Latitude Longitude Course Direction KTS MPH feet Rate Location/Type
04:55PM 41.4547 -81.8436 337° Northwest 203 234 2,600  Level Cleveland Center
04:57PM 41.5272 -81.8839 337° Northwest 257 296 5,100 1,980 Climbing Cleveland Center
04:58PM 41.4992 -81.9639 245° Southwest 169 194 7,100 2,280 Climbing Cleveland Center
04:59PM 41.4567 -82.0433 234° Southwest 212 244 9,700 2,040 Climbing Cleveland Center
05:00PM 41.4117 -82.1281 235° Southwest 260 299 11,200 960 Climbing Cleveland Center
05:01PM 41.3581 -82.2292 235° Southwest 316 364 11,700 840 Climbing Cleveland Center
05:02PM 41.3003 -82.3356 234° Southwest 353 406 12,900 1,320 Climbing Cleveland Center
05:03PM 41.2403 -82.4444 234° Southwest 369 425 14,400 1,440 Climbing Cleveland Center
05:04PM 41.1797 -82.5639 236° Southwest 369 425 15,800 1,380 Climbing Cleveland Center
05:05PM 41.1297 -82.6811 241° Southwest 369 425 17,200 1,260 Climbing Cleveland Center
05:06PM 41.0942 -82.8039 249° West 358 412 18,400 1,260 Climbing Cleveland Center
05:07PM 41.0747 -82.9381 259° West 368 423 19,800 1,260 Climbing Cleveland Center
05:08PM 41.0550 -83.0753 259° West 375 432 21,000 960 Climbing Cleveland Center
05:09PM 41.0353 -83.2175 260° West 387 445 21,800 900 Climbing Cleveland Center
05:10PM 41.0172 -83.3600 261° West 397 457 22,800 1,200 Climbing Cleveland Center
05:12PM 40.9672 -83.6744 258° West 396 456 25,700 1,320 Climbing Indianapolis Center
05:13PM 40.9150 -83.7925 240° Southwest 376 433 27,100 1,260 Climbing Indianapolis Center
05:14PM 40.8322 -83.8681 215° Southwest 361 415 28,400 1,200 Climbing Indianapolis Center
05:15PM 40.7497 -83.9444 215° Southwest 359 413 29,700 1,260 Climbing Indianapolis Center
05:16PM 40.6672 -84.0189 214° Southwest 358 412 31,100 1,080 Climbing Indianapolis Center
05:17PM 40.5853 -84.0953 215° Southwest 358 412 32,000 420 Climbing Indianapolis Center
05:18PM 40.4964 -84.1761 215° Southwest 377 434 32,000  Level Indianapolis Center
05:19PM 40.3833 -84.2778 214° Southwest 410 472 32,000  Level Indianapolis Center
05:20PM 40.2850 -84.3675 215° Southwest 425 489 32,000  Level Indianapolis Center
05:21PM 40.1850 -84.4558 214° Southwest 430 495 32,000  Level Indianapolis Center
05:22PM 40.0869 -84.5433 214° Southwest 427 491 32,000  Level Indianapolis Center
05:23PM 39.9894 -84.6303 214° Southwest 425 489 32,000  Level Indianapolis Center
05:24PM 39.8917 -84.7186 215° Southwest 425 489 32,000  Level Indianapolis Center
05:25PM 39.7761 -84.8197 214° Southwest 427 491 32,000  Level Indianapolis Center
05:26PM 39.6653 -84.8794 203° Southwest 426 490 32,000  Level Indianapolis Center
05:27PM 39.5556 -84.9303 200° South 430 495 32,000  Level Indianapolis Center
05:28PM 39.4433 -84.9822 200° South 429 494 32,000  Level Indianapolis Center
05:29PM 39.3311 -85.0328 199° South 428 493 32,000  Level Indianapolis Center
05:31PM 39.1944 -85.0947 199° South 433 498 32,000  Level Indianapolis Center
05:32PM 39.0822 -85.1453 199° South 428 493 32,000  Level Indianapolis Center
05:33PM 38.9694 -85.1953 199° South 428 493 32,000  Level Indianapolis Center
05:34PM 38.8558 -85.2456 199° South 429 494 32,000  Level Indianapolis Center
05:35PM 38.7442 -85.2958 199° South 427 491 32,000  Level Indianapolis Center
05:36PM 38.6317 -85.3458 199° South 428 493 32,000  Level Indianapolis Center
05:37PM 38.5000 -85.4044 199° South 427 491 32,000  Level Indianapolis Center
05:38PM 38.3867 -85.4547 199° South 428 493 32,000  Level Indianapolis Center
05:39PM 38.2742 -85.5028 199° South 425 489 32,000  Level Indianapolis Center
05:40PM 38.1608 -85.5525 199° South 426 490 32,000  Level Indianapolis Center
05:41PM 38.0431 -85.5869 193° South 430 495 32,000  Level Indianapolis Center
05:42PM 37.9244 -85.6042 187° South 430 495 32,000  Level Indianapolis Center
05:43PM 37.8047 -85.6214 186° South 430 495 32,000 -960 Level Indianapolis Center
05:44PM 37.6608 -85.6428 187° South 430 495 30,100 -1,860 Descending Indianapolis Center
05:45PM 37.5422 -85.6586 186° South 428 493 28,200 -2,040 Descending Indianapolis Center
05:46PM 37.4231 -85.6761 187° South 427 491 26,000 -2,040 Descending Indianapolis Center
05:47PM 37.3442 -85.6925 189° South 438 504 24,800 -1,440 Descending Memphis Center
05:48PM 37.2300 -85.7042 185° South 420 483 23,700 -900 Descending Memphis Center
05:49PM 37.1244 -85.7208 187° South 407 468 23,000 -360 Descending Memphis Center
05:50PM 37.0208 -85.7397 188° South 394 453 23,000  Level Memphis Center
05:51PM 36.8586 -85.8094 199° South 407 468 23,000  Level Indianapolis Center
05:52PM 36.8036 -85.8353 201° Southwest 405 466 23,000  Level Memphis Center
05:53PM 36.7008 -85.8772 198° South 420 483 23,000  Level Memphis Center
05:54PM 36.5839 -85.9278 199° South 437 503 23,000  Level Memphis Center
05:55PM 36.4778 -85.9928 206° Southwest 436 502 23,000  Level Memphis Center
05:56PM 36.4192 -86.1017 236° Southwest 395 455 23,000  Level Memphis Center
05:57PM 36.4067 -86.2314 263° West 379 436 23,000  Level Memphis Center
05:58PM 36.4403 -86.3639 288° West 379 436 23,000  Level Memphis Center
05:59PM 36.4442 -86.4875 272° West 339 390 23,000  Level Memphis Center
06:00PM 36.3903 -86.5622 228° Southwest 303 349 23,000  Level Memphis Center
06:01PM 36.3333 -86.6139 216° Southwest 266 306 23,000  Level Memphis Center
06:02PM 36.2758 -86.6369 198° South 231 266 23,000  Level Memphis Center
06:03PM 36.2200 -86.6550 195° South 221 254 23,000  Level Memphis Center
06:04PM 36.1767 -86.6697 195° South 188 216 23,000  Level Memphis Center
06:05PM 36.1417 -86.6842 198° South 159 183 23,000  Level Memphis Center
06:06PM 36.0942 -86.6992 194° South 159 183 23,000  Level Memphis Center
06:07PM 36.0528 -86.7139 196° South 159 183 23,000  Level Memphis Center
06:08PM 36.0117 -86.7286 196° South 159 183 23,000  Level Memphis Center
06:10PM 36.1167 -86.6667 22° Northeast  Level FlightAware Approximate
06:17PM 36.1245 -86.6782 22° Northeast  Level Estimated
06:18PM 36.1245 -86.6782 22° Northeast  Level Estimated
06:19PM 36.1245 -86.6782 22° Northeast  Level Estimated
06:20PM 36.1245 -86.6782 22° Northeast  Level Estimated
06:21PM 36.1245 -86.6782 22° Northeast  Level Estimated
06:22PM 36.1245 -86.6782 22° Northeast  Level Estimated
06:23PM 36.1245 -86.6782 22° Northeast  Level Estimated
06:24PM 36.1245 -86.6782 22° Northeast  Level Estimated